#timestamp,LO_Frequency,Hit,Temp,Hum 
1478376015.6,286046993.5,N,0.0,0.0
1478376035.5,286046992.1,N,0.0,0.0
1478376055.3,286046993.0,N,0.0,0.0
1478376075.1,286046991.8,N,0.0,0.0
1478376095.9,286046993.2,N,0.0,0.0
1478376115.7,286046991.3,N,0.0,0.0
1478376135.5,286046990.9,N,0.0,0.0
1478376155.3,286046989.0,N,0.0,0.0
1478376175.2,286046989.3,N,0.0,0.0
1478376195.0,286046988.8,N,0.0,0.0
1478376195.9,286046988.8,N,0.0,0.0
1478376215.7,286046989.1,N,0.0,0.0
1478376235.6,286046988.9,N,0.0,0.0
1478376255.4,286046988.6,N,0.0,0.0
1478376275.2,286046990.3,N,0.0,0.0
1478376295.1,286046990.6,N,0.0,0.0
1478376296.0,286046990.6,N,0.0,0.0
1478376315.8,286046991.0,N,0.0,0.0
1478376335.6,286046992.0,N,0.0,0.0
1478376355.5,286046992.5,N,0.0,0.0
1478376375.3,286046992.3,N,0.0,0.0
1478376395.1,286046990.9,N,0.0,0.0
1478376415.9,286046993.2,N,0.0,0.0
1478376435.7,286046990.3,N,0.0,0.0
1478376455.5,286046989.2,N,0.0,0.0
1478376475.4,286046991.2,N,0.0,0.0
1478376495.2,286046988.6,N,0.0,0.0
1478376515.0,286046991.6,N,0.0,0.0
1478376515.9,286046991.6,N,0.0,0.0
1478376535.8,286046991.4,N,0.0,0.0
1478376555.6,286046988.6,N,0.0,0.0
1478376575.4,286046991.1,N,0.0,0.0
1478376595.3,286046991.1,N,0.0,0.0
1478376615.1,286046992.9,N,0.0,0.0
1478376616.0,286046992.9,N,0.0,0.0
1478376635.8,286046993.0,N,0.0,0.0
1478376655.6,286046994.7,N,0.0,0.0
1478376675.5,286046993.7,N,0.0,0.0
1478376695.3,286046993.7,N,0.0,0.0
1478376715.1,286046993.6,N,0.0,0.0
1478376735.9,286046994.3,N,0.0,0.0
1478376755.7,286046992.4,N,0.0,0.0
1478376775.5,286046990.5,N,0.0,0.0
1478376795.4,286046990.1,N,0.0,0.0
1478376815.2,286046991.2,N,0.0,0.0
1478376835.0,286046990.8,N,0.0,0.0
1478376835.9,286046990.8,N,0.0,0.0
1478376855.8,286046990.6,N,0.0,0.0
1478376875.6,286046988.6,N,0.0,0.0
1478376895.4,286046991.3,N,0.0,0.0
1478376915.3,286046989.0,N,0.0,0.0
1478376935.1,286046991.3,N,0.0,0.0
1478376936.0,286046991.3,N,0.0,0.0
1478376955.8,286046990.7,N,0.0,0.0
1478376975.7,286046988.6,N,0.0,0.0
1478376995.5,286046991.0,N,0.0,0.0
1478377015.3,286046990.3,N,0.0,0.0
1478377035.2,286046992.8,N,0.0,0.0
1478377055.9,286046992.7,N,0.0,0.0
1478377075.7,286046993.0,N,0.0,0.0
1478377095.5,286046994.5,N,0.0,0.0
1478377115.4,286046990.8,N,0.0,0.0
1478377135.2,286046992.9,N,0.0,0.0
1478377155.0,286046992.5,N,0.0,0.0
1478377155.9,286046992.5,N,0.0,0.0
1478377175.8,286046993.1,N,0.0,0.0
1478377195.6,286046990.6,N,0.0,0.0
1478377215.4,286046990.5,N,0.0,0.0
1478377235.3,286046992.6,N,0.0,0.0
1478377255.1,286046994.7,N,0.0,0.0
1478377275.8,286046994.7,N,0.0,0.0
1478377295.7,286046994.4,N,0.0,0.0
1478377315.5,286046992.6,N,0.0,0.0
1478377335.3,286046990.4,N,0.0,0.0
1478377355.2,286046991.4,N,0.0,0.0
1478377375.9,286046990.3,N,0.0,0.0
1478377395.7,286046993.2,N,0.0,0.0
1478377415.6,286046990.6,N,0.0,0.0
1478377435.4,286046993.1,N,0.0,0.0
1478377455.2,286046991.2,N,0.0,0.0
1478377475.1,286046991.2,N,0.0,0.0
1478377476.0,286046991.2,N,0.0,0.0
1478377495.8,286046989.4,N,0.0,0.0
1478377515.6,286046989.1,N,0.0,0.0
1478377535.5,286046990.0,N,0.0,0.0
1478377555.3,286046989.7,N,0.0,0.0
1478377575.1,286046987.1,N,0.0,0.0
1478377595.8,286046988.2,N,0.0,0.0
1478377615.7,286046987.5,N,0.0,0.0
1478377635.5,286046988.2,N,0.0,0.0
1478377655.3,286046986.0,N,0.0,0.0
1478377675.2,286046986.3,N,0.0,0.0
1478377695.9,286046986.4,N,0.0,0.0
1478377715.7,286046984.5,N,0.0,0.0
1478377735.6,286046984.8,N,0.0,0.0
1478377755.4,286046982.3,N,0.0,0.0
1478377775.2,286046984.9,N,0.0,0.0
1478377795.1,286046982.3,N,0.0,0.0
1478377796.0,286046982.3,N,0.0,0.0
1478377815.8,286046985.1,N,0.0,0.0
1478377835.6,286046985.9,N,0.0,0.0
1478377855.5,286046986.0,N,0.0,0.0
1478377875.3,286046985.5,N,0.0,0.0
1478377895.1,286046988.4,N,0.0,0.0
1478377915.9,286046988.0,N,0.0,0.0
1478377935.7,286046985.5,N,0.0,0.0
1478377955.5,286046988.3,N,0.0,0.0
1478377975.3,286046986.4,N,0.0,0.0
1478377995.2,286046986.3,N,0.0,0.0
1478378015.0,286046984.0,N,0.0,0.0
1478378015.9,286046984.0,N,0.0,0.0
1478378035.7,286046985.0,N,0.0,0.0
1478378055.6,286046984.9,N,0.0,0.0
1478378075.4,286046984.3,N,0.0,0.0
1478378095.2,286046986.8,N,0.0,0.0
1478378115.1,286046984.3,N,0.0,0.0
1478378116.0,286046984.3,N,0.0,0.0
1478378135.8,286046982.2,N,0.0,0.0
1478378155.6,286046984.9,N,0.0,0.0
1478378175.5,286046984.1,N,0.0,0.0
1478378195.3,286046983.8,N,0.0,0.0
1478378215.1,286046986.3,N,0.0,0.0
1478378235.9,286046987.7,N,0.0,0.0
1478378255.7,286046988.4,N,0.0,0.0
1478378275.5,286046987.8,N,0.0,0.0
1478378295.4,286046987.8,N,0.0,0.0
1478378315.2,286046987.0,N,0.0,0.0
1478378335.0,286046989.9,N,0.0,0.0
1478378335.9,286046989.9,N,0.0,0.0
1478378355.8,286046990.0,N,0.0,0.0
1478378375.6,286046987.5,N,0.0,0.0
1478378395.4,286046989.6,N,0.0,0.0
1478378415.3,286046987.3,N,0.0,0.0
1478378435.1,286046987.2,N,0.0,0.0
1478378436.0,286046987.2,N,0.0,0.0
1478378455.8,286046987.7,N,0.0,0.0
1478378475.7,286046988.2,N,0.0,0.0
1478378495.5,286046986.6,N,0.0,0.0
1478378515.3,286046986.5,N,0.0,0.0
1478378535.1,286046985.7,N,0.0,0.0
1478378555.9,286046987.7,N,0.0,0.0
1478378575.7,286046988.1,N,0.0,0.0
1478378595.5,286046987.7,N,0.0,0.0
1478378615.4,286046987.5,N,0.0,0.0
1478378635.2,286046987.4,N,0.0,0.0
1478378655.0,286046987.7,N,0.0,0.0
1478378655.9,286046987.7,N,0.0,0.0
1478378675.8,286046988.2,N,0.0,0.0
1478378695.6,286046988.0,N,0.0,0.0
1478378715.4,286046987.9,N,0.0,0.0
1478378735.3,286046985.9,N,0.0,0.0
1478378755.1,286046985.9,N,0.0,0.0
1478378756.0,286046985.9,N,0.0,0.0
1478378775.8,286046985.8,N,0.0,0.0
1478378795.7,286046985.4,N,0.0,0.0
1478378815.5,286046988.2,N,0.0,0.0
1478378835.3,286046988.3,N,0.0,0.0
1478378855.2,286046987.5,Y,0.0,0.0
1478378875.9,286046997.3,N,0.0,0.0
1478378895.7,286046999.4,N,0.0,0.0
1478378915.6,286046999.1,N,0.0,0.0
1478378935.4,286046998.0,N,0.0,0.0
1478378955.2,286046999.1,N,0.0,0.0
1478378975.1,286046998.5,N,0.0,0.0
1478378976.0,286046998.5,N,0.0,0.0
1478378995.8,286047000.8,N,0.0,0.0
1478379015.6,286046998.8,N,0.0,0.0
1478379035.5,286046998.5,N,0.0,0.0
1478379055.3,286046999.1,N,0.0,0.0
1478379075.1,286046997.8,N,0.0,0.0
1478379095.8,286046994.4,N,0.0,0.0
1478379115.7,286046999.1,N,0.0,0.0
1478379135.5,286047001.6,N,0.0,0.0
1478379155.4,286047033.0,Y,0.0,0.0
1478379175.2,286047018.0,Y,0.0,0.0
1478379195.0,286047019.5,Y,0.0,0.0
1478379195.9,286047019.5,Y,0.0,0.0
1478379215.8,286047038.6,Y,0.0,0.0
1478379235.6,286047052.3,Y,0.0,0.0
1478379255.5,286047058.8,Y,0.0,0.0
1478379275.3,286047067.7,Y,0.0,0.0
1478379295.1,286047075.7,Y,0.0,0.0
1478379315.9,286047081.3,Y,0.0,0.0
1478379335.7,286047091.7,Y,0.0,0.0
1478379355.6,286047097.7,Y,0.0,0.0
1478379375.4,286047106.5,Y,0.0,0.0
1478379395.2,286047112.9,Y,0.0,0.0
1478379415.1,286047116.8,Y,0.0,0.0
1478379416.0,286047116.8,Y,0.0,0.0
1478379435.8,286047128.3,Y,0.0,0.0
1478379455.7,286047132.7,Y,0.0,0.0
1478379475.5,286047138.6,Y,0.0,0.0
1478379495.4,286047141.2,Y,0.0,0.0
1478379515.2,286047142.5,Y,0.0,0.0
1478379535.0,286047144.2,Y,0.0,0.0
1478379536.0,286047144.2,Y,0.0,0.0
1478379555.8,286047147.7,Y,0.0,0.0
1478379575.6,286047147.1,Y,0.0,0.0
1478379595.5,286047146.0,Y,0.0,0.0
